Wind_Speed
2 2 2 2 2 2 3 3 3 3 3 3 4 4 4 4 3 3 3 4 4 4 4 4 4 4 4 4 4 5 5 5 5 6 6 6 7 7 7 7 7 7 7 8 8 8 8 8 8
1 2 2 2 2 2 3 3 3 4 4 4 4 4 4 3 3 3 3 3 3 4 4 4 4 4 5 5 5 5 5 5 5 6 6 7 7 7 7 7 8 8 7 8 8 8 9 9 9
2 1 1 1 2 2 3 3 3 3 4 4 4 4 3 3 3 3 2 2 3 3 4 4 5 5 5 5 5 5 5 5 5 5 5 6 6 6 6 6 7 7 7 8 8 8 8 9 10
1 1 1 1 2 2 2 2 3 3 3 4 3 4 3 3 3 2 2 2 2 3 3 4 5 5 5 6 6 6 5 5 4 5 5 5 5 6 6 6 6 6 6 7 8 8 9 9 9
1 1 1 2 2 2 2 2 2 3 3 4 4 3 4 3 3 3 2 3 3 3 3 4 5 5 5 5 6 6 5 4 4 5 5 5 5 6 6 7 7 6 6 6 7 7 9 9 9
2 2 2 2 2 3 3 2 3 3 3 4 4 4 3 3 3 3 3 3 3 3 3 3 4 5 5 6 6 5 4 4 5 5 5 5 5 6 6 6 6 6 6 6 7 7 8 8 9
2 2 3 3 3 3 3 3 3 4 4 4 4 4 3 3 3 3 3 3 3 3 3 3 3 4 5 5 5 5 4 5 4 4 4 5 5 6 6 6 5 6 7 7 8 8 8 8 8
2 3 3 4 4 3 4 3 3 4 4 4 4 4 4 4 3 3 3 3 3 3 4 3 4 4 4 4 4 4 5 5 4 4 4 4 5 6 6 6 6 5 6 7 7 8 8 8 8
3 3 3 4 4 4 4 4 4 4 4 4 4 4 4 4 4 4 4 4 4 4 4 4 4 4 4 4 4 5 5 4 4 4 4 5 5 5 6 6 6 5 6 6 6 7 7 8 8
3 3 4 3 4 4 5 4 4 4 3 4 4 3 4 4 4 4 4 4 5 5 5 5 5 5 5 5 5 5 5 4 4 4 4 5 5 6 6 6 6 6 6 6 6 6 6 7 7
4 4 4 4 4 5 5 5 4 4 4 4 4 4 5 4 4 5 5 5 5 5 6 6 6 5 6 6 6 5 5 4 4 4 4 5 5 6 6 6 6 6 6 6 6 6 6 7 7
5 5 5 5 5 5 5 5 5 4 4 4 5 5 5 5 4 4 5 6 6 6 6 6 6 6 6 6 6 5 4 4 5 5 5 5 6 5 5 5 5 5 6 6 7 7 7 7 8
6 6 6 5 5 5 5 5 5 5 5 5 5 5 5 5 5 5 4 5 5 5 6 5 5 6 6 5 4 3 4 5 4 4 4 5 5 5 5 5 5 6 6 7 8 8 9 9 9
7 7 7 7 7 7 6 6 6 6 6 6 5 5 4 4 4 4 4 4 5 5 5 5 5 5 4 3 3 3 4 5 5 5 5 6 6 6 6 7 7 7 7 8 8 9 9 10 10
7 8 8 8 8 8 7 7 7 7 7 6 5 5 5 4 4 4 4 5 5 5 6 6 6 5 4 4 4 4 5 6 6 6 6 6 7 7 8 8 9 9 9 9 9 10 11 11 11
8 8 9 8 8 8 9 8 8 8 8 7 7 6 6 6 5 5 6 6 6 5 6 6 5 4 4 5 5 5 6 6 7 7 7 7 8 8 9 10 10 11 11 11 11 11 12 12 13
8 9 9 10 10 10 10 10 10 10 9 9 8 7 7 7 6 6 7 7 7 6 6 5 5 5 6 6 6 6 7 7 8 8 9 9 9 10 11 11 11 12 13 13 13 13 13 13 14
9 10 10 10 11 11 11 11 11 11 11 10 9 9 9 9 8 8 8 8 7 7 7 6 6 6 6 7 7 8 8 9 9 9 10 10 10 11 11 12 12 13 13 13 14 14 14 14 15
11 10 10 11 11 12 12 12 12 12 12 11 11 10 9 10 9 9 9 8 8 8 8 8 8 8 8 8 8 9 10 10 11 11 11 11 12 12 12 13 13 13 13 13 13 14 14 14 15
11 11 11 11 12 12 12 12 13 13 13 13 12 11 10 10 10 10 10 9 9 9 9 9 9 9 9 9 9 10 10 11 11 12 12 13 13 14 14 13 13 13 13 13 14 14 15 15 15
12 12 12 12 12 12 13 13 14 14 14 14 13 12 11 11 10 10 10 10 10 10 10 10 10 10 10 10 11 11 12 12 12 12 12 13 14 14 14 14 14 14 14 14 14 14 15 15 15
12 13 12 12 12 13 13 13 14 14 15 14 14 13 12 12 12 11 11 11 11 10 10 10 11 11 11 11 12 13 13 13 13 13 13 14 14 14 14 14 15 14 14 14 14 14 15 15 16
13 13 13 12 13 13 13 13 13 14 14 14 14 14 13 13 13 12 12 12 12 12 11 11 12 12 12 13 13 14 14 14 14 14 14 14 14 14 14 14 14 13 13 13 14 14 14 15 15
13 14 14 14 14 15 14 14 13 14 14 14 15 15 14 14 14 14 13 13 13 12 12 12 12 13 13 13 14 15 15 14 14 14 14 14 15 14 14 13 13 13 13 13 14 14 14 14 15
14 14 14 14 15 15 14 15 13 13 14 14 15 15 15 15 15 15 14 14 14 14 14 14 14 14 14 15 15 15 15 14 14 14 13 14 14 14 14 14 14 14 14 14 14 14 15 15 15
14 14 14 15 15 15 15 15 13 13 13 14 14 15 16 16 16 16 15 15 15 15 15 15 15 15 15 15 15 15 15 15 14 13 13 13 14 14 14 14 14 15 14 15 15 15 15 15 15
14 15 15 15 16 16 16 14 13 14 13 14 15 15 15 16 16 17 16 16 17 16 16 16 16 16 16 16 16 16 15 15 14 13 13 14 14 14 14 14 14 14 14 15 15 15 16 16 16
15 15 16 16 16 16 16 15 13 14 14 14 15 15 15 16 16 16 16 17 17 17 17 18 18 17 16 17 17 16 16 16 15 15 15 15 15 15 15 15 15 15 15 15 15 15 16 16 17
15 16 17 17 17 17 16 16 14 14 15 15 15 16 16 16 16 17 17 18 18 18 18 18 18 18 17 17 16 16 17 16 16 16 16 16 16 15 16 15 16 15 16 16 16 16 17 17 18
17 17 17 18 18 18 19 18 15 15 15 15 16 16 17 17 17 18 18 19 19 19 19 19 19 19 18 18 17 16 16 16 16 17 16 17 16 16 16 16 16 17 17 18 18 18 19 19 18
Wind_Direction
279 267 252 240 241 241 242 239 229 225 221 217 212 203 198 202 205 219 227 228 224 225 223 219 220 220 220 222 231 241 243 246 246 245 241 236 231 231 226 221 220 220 219 216 215 219 216 217 218
286 280 261 239 239 244 239 233 220 220 218 213 207 198 195 198 203 214 221 226 225 222 224 224 225 223 225 229 233 238 243 245 245 245 239 235 235 236 230 225 226 226 226 217 213 219 223 226 226
283 295 280 238 226 225 235 237 226 222 210 203 199 192 188 194 202 210 216 221 224 227 228 228 232 231 231 232 236 238 244 244 244 243 238 234 229 228 223 224 227 226 225 220 221 227 229 231 231
270 291 238 213 199 202 219 235 239 219 205 201 203 201 201 205 210 212 217 216 224 232 235 237 238 234 234 237 238 238 240 243 243 238 234 230 225 221 222 225 222 225 229 228 229 233 232 232 234
245 233 221 202 193 200 211 226 233 210 204 205 207 210 214 220 225 226 228 227 231 234 242 239 234 234 234 234 237 235 234 240 242 236 230 230 228 226 228 229 228 231 235 231 224 236 239 235 234
242 225 221 218 217 225 225 232 232 224 215 209 212 219 225 229 241 234 230 229 232 238 247 242 236 231 229 229 231 231 232 239 242 237 230 229 225 225 226 231 236 239 239 239 234 246 247 235 230
246 231 227 229 238 241 232 228 232 230 222 215 218 220 228 238 239 233 228 229 234 238 237 236 232 227 227 228 228 232 239 242 237 228 226 229 232 233 230 236 245 248 245 245 248 253 252 241 235
253 243 240 240 239 241 230 227 230 234 224 222 221 220 228 233 232 229 232 233 233 233 231 229 225 225 228 232 229 236 244 243 239 233 228 229 232 235 237 242 248 253 249 247 250 250 250 243 238
257 248 250 248 241 238 233 231 231 238 230 229 227 223 224 230 231 230 234 234 234 230 227 229 233 231 231 233 242 247 248 242 237 236 233 235 235 236 240 245 252 254 249 247 250 246 245 243 242
267 256 252 250 242 237 236 235 237 242 235 240 236 229 235 236 234 235 239 236 232 229 231 236 235 237 239 245 251 253 247 241 240 242 243 241 240 241 245 248 251 253 250 251 252 251 247 250 245
267 260 253 250 244 242 243 238 237 239 240 242 239 239 245 245 241 241 246 240 234 230 235 241 243 244 245 245 248 247 238 237 245 247 242 238 238 243 246 247 250 253 251 254 255 255 255 257 258
266 266 259 252 248 244 242 239 237 236 243 246 246 244 249 247 242 246 247 245 238 237 237 240 246 249 250 247 242 237 240 246 249 249 242 239 241 245 249 250 251 257 256 258 259 259 257 257 257
263 265 260 251 251 247 242 239 239 235 235 242 247 244 245 249 246 243 245 243 238 238 241 241 249 252 250 244 239 246 255 254 257 261 256 255 255 257 260 263 265 262 261 260 260 259 259 258 256
259 260 256 251 253 250 246 245 244 239 240 246 248 251 251 254 251 242 241 242 241 238 236 236 241 240 238 241 247 256 263 262 262 261 259 262 265 267 268 270 272 270 265 263 261 260 260 260 259
258 257 256 254 252 250 250 248 245 245 244 246 248 247 251 251 246 245 243 246 248 242 239 237 232 227 232 240 247 253 258 264 265 262 259 262 266 269 270 272 274 274 272 270 265 261 259 260 259
259 257 255 253 251 250 249 250 247 244 246 248 247 248 251 254 252 248 248 249 251 248 241 234 229 234 242 249 253 257 260 265 267 265 265 266 267 268 271 273 274 274 273 271 268 266 264 261 259
262 258 256 253 252 252 250 250 248 245 248 248 247 248 252 254 253 248 250 251 249 244 238 237 239 247 254 261 264 266 270 273 272 271 272 272 272 274 275 276 276 275 273 271 270 268 266 264 261
260 256 254 255 255 253 252 250 249 251 252 250 249 250 253 252 255 251 250 248 246 241 239 241 249 257 263 267 270 272 274 276 274 275 276 276 278 280 279 280 280 278 276 274 273 270 266 263 262
258 256 255 256 256 254 251 251 250 251 252 249 250 252 253 251 254 250 248 244 240 239 241 246 255 263 268 272 275 276 275 275 274 276 277 278 280 283 283 283 281 280 279 277 275 274 270 265 263
259 257 258 258 255 254 251 249 249 249 251 250 249 251 247 247 251 250 248 245 241 241 244 250 257 265 270 274 277 279 280 278 277 276 278 280 282 284 285 283 281 280 278 277 275 275 272 269 267
260 257 257 258 258 256 255 252 250 249 251 250 250 251 249 247 250 251 249 247 244 243 247 253 261 266 271 275 278 281 282 282 281 279 279 282 284 284 284 283 281 280 278 276 274 274 273 271 269
260 256 257 257 256 256 255 255 252 251 251 249 249 249 249 247 249 249 249 250 248 248 248 255 263 270 274 277 280 284 285 282 282 282 281 282 284 284 283 282 283 281 278 277 277 276 274 272 270
259 257 257 257 257 255 257 258 255 252 250 247 247 248 248 248 251 251 252 253 252 250 252 259 266 273 276 279 281 285 285 284 282 282 281 282 284 285 283 283 281 278 278 279 280 279 277 275 272
258 259 258 258 258 257 258 259 257 254 252 248 247 247 248 247 250 251 252 254 253 252 257 264 268 273 278 280 283 285 285 284 283 282 282 284 284 283 282 281 281 280 280 280 280 278 277 276 274
256 257 259 259 257 258 258 255 256 255 253 252 250 249 249 248 248 249 250 254 254 254 259 265 269 274 277 279 283 285 283 282 285 286 284 286 285 283 280 279 280 281 281 280 279 278 279 278 275
252 252 253 255 256 259 257 256 255 254 257 255 253 251 250 248 248 248 250 252 253 257 261 266 270 274 275 278 281 282 280 281 283 285 285 286 286 284 283 281 281 282 282 281 280 279 279 279 277
251 251 252 254 257 259 259 257 255 256 257 256 256 254 251 249 249 251 252 253 253 256 261 265 269 272 273 276 280 280 279 280 280 282 285 286 285 284 283 283 283 282 283 283 281 280 278 278 278
252 252 253 254 257 260 261 260 258 256 257 257 256 255 253 251 250 252 253 256 256 257 260 264 268 269 270 273 277 277 278 279 279 281 284 286 285 284 284 284 282 282 283 283 283 281 279 279 279
252 253 253 254 256 258 260 260 259 257 258 257 256 254 254 252 253 255 256 256 258 260 262 264 268 269 270 271 274 276 278 278 278 280 283 284 285 285 285 284 282 281 281 281 282 283 282 281 281
252 251 252 254 257 258 260 262 258 257 257 257 256 255 253 251 251 252 256 256 257 260 263 265 267 270 271 272 273 274 278 278 279 280 282 285 285 284 285 285 284 282 281 282 283 284 284 283 283
Height
5868 5868 5868 5869 5871 5870 5870 5870 5870 5869 5869 5870 5870 5870 5871 5871 5872 5873 5871 5869 5869 5869 5869 5869 5870 5870 5870 5870 5870 5870 5870 5870 5870 5870 5870 5870 5870 5870 5870 5870 5871 5871 5872 5872 5873 5873 5874 5874 5875
5867 5867 5869 5869 5869 5869 5870 5869 5869 5869 5869 5869 5869 5869 5870 5870 5870 5869 5869 5869 5869 5868 5868 5868 5869 5869 5869 5869 5869 5869 5869 5869 5869 5869 5869 5869 5869 5869 5869 5869 5870 5870 5871 5871 5872 5872 5873 5873 5874
5867 5867 5868 5868 5868 5869 5869 5868 5868 5868 5868 5868 5868 5869 5869 5869 5869 5868 5868 5868 5868 5868 5868 5868 5868 5868 5868 5868 5868 5868 5868 5868 5868 5868 5868 5868 5868 5868 5868 5868 5868 5869 5869 5870 5870 5871 5871 5872 5872
5866 5867 5868 5868 5868 5868 5867 5867 5867 5867 5867 5867 5868 5868 5868 5868 5868 5868 5867 5867 5867 5867 5867 5867 5867 5867 5867 5867 5867 5867 5867 5867 5867 5867 5867 5867 5867 5867 5867 5867 5868 5868 5868 5869 5868 5869 5869 5870 5870
5866 5867 5867 5867 5867 5867 5867 5866 5866 5866 5867 5867 5867 5867 5867 5867 5867 5867 5866 5866 5866 5866 5866 5866 5866 5866 5866 5866 5867 5866 5866 5866 5866 5866 5866 5866 5866 5866 5866 5867 5867 5867 5867 5867 5867 5868 5867 5868 5868
5866 5866 5867 5866 5867 5866 5866 5866 5866 5866 5866 5866 5866 5866 5866 5866 5866 5866 5866 5866 5865 5865 5865 5865 5865 5865 5865 5866 5866 5866 5866 5866 5865 5865 5865 5866 5866 5866 5866 5866 5866 5866 5866 5866 5867 5866 5866 5866 5866
5866 5866 5866 5866 5866 5866 5866 5865 5865 5865 5865 5865 5865 5866 5866 5865 5865 5865 5865 5865 5865 5865 5865 5864 5864 5864 5864 5865 5865 5865 5865 5865 5864 5865 5865 5865 5865 5865 5865 5865 5865 5865 5865 5865 5865 5865 5865 5865 5865
5865 5866 5865 5865 5865 5865 5865 5864 5864 5864 5864 5864 5864 5865 5865 5865 5864 5864 5864 5864 5864 5864 5864 5864 5864 5864 5864 5864 5864 5864 5864 5864 5864 5864 5864 5864 5864 5864 5864 5864 5864 5864 5864 5864 5864 5864 5864 5864 5864
5863 5865 5864 5864 5864 5864 5864 5863 5863 5863 5863 5863 5863 5864 5864 5864 5864 5864 5864 5864 5864 5863 5863 5863 5863 5863 5863 5863 5863 5863 5863 5863 5863 5863 5863 5863 5863 5863 5863 5863 5863 5863 5863 5863 5863 5863 5863 5863 5863
5862 5863 5863 5863 5863 5863 5862 5862 5862 5862 5862 5862 5862 5862 5862 5863 5863 5863 5863 5863 5863 5863 5863 5863 5863 5862 5862 5862 5862 5862 5862 5862 5862 5862 5862 5862 5862 5862 5862 5862 5862 5862 5862 5862 5862 5862 5862 5861 5861
5861 5861 5861 5861 5861 5861 5861 5861 5861 5861 5861 5862 5862 5862 5862 5862 5862 5861 5862 5862 5862 5862 5862 5862 5862 5861 5861 5861 5861 5861 5861 5861 5861 5861 5861 5861 5861 5861 5861 5861 5861 5861 5861 5860 5860 5860 5860 5860 5860
5859 5860 5860 5860 5860 5860 5860 5860 5860 5860 5861 5861 5860 5860 5861 5860 5860 5860 5861 5861 5861 5861 5861 5861 5860 5860 5860 5860 5860 5860 5860 5860 5860 5860 5860 5860 5860 5860 5860 5860 5860 5859 5859 5859 5859 5859 5859 5858 5858
5858 5858 5858 5858 5858 5858 5858 5859 5859 5859 5859 5859 5859 5859 5859 5860 5859 5859 5860 5860 5860 5860 5859 5859 5859 5859 5859 5859 5859 5859 5859 5859 5859 5859 5859 5859 5859 5858 5858 5858 5858 5858 5858 5858 5857 5857 5857 5857 5857
5856 5856 5856 5856 5856 5856 5857 5857 5857 5858 5858 5858 5858 5858 5858 5858 5858 5858 5858 5858 5858 5858 5858 5858 5858 5858 5858 5858 5858 5858 5858 5858 5858 5857 5857 5857 5857 5857 5857 5857 5856 5856 5856 5856 5855 5855 5855 5855 5854
5854 5854 5854 5854 5854 5854 5855 5856 5856 5856 5856 5857 5857 5857 5857 5857 5857 5857 5857 5857 5857 5857 5857 5857 5857 5857 5857 5857 5857 5857 5857 5857 5857 5856 5856 5856 5856 5855 5855 5855 5854 5854 5854 5853 5853 5853 5852 5852 5852
5851 5852 5852 5853 5852 5853 5855 5854 5854 5854 5854 5855 5855 5855 5856 5856 5856 5856 5856 5856 5856 5856 5856 5856 5856 5856 5856 5856 5856 5856 5856 5855 5855 5855 5854 5854 5854 5853 5853 5852 5852 5851 5851 5850 5850 5850 5850 5849 5849
5849 5850 5850 5850 5850 5850 5851 5852 5852 5852 5852 5853 5853 5854 5854 5854 5854 5854 5854 5854 5854 5854 5854 5855 5855 5855 5855 5855 5855 5855 5854 5854 5853 5853 5852 5852 5851 5851 5850 5850 5849 5848 5848 5847 5847 5846 5846 5846 5846
5847 5847 5847 5847 5848 5848 5848 5849 5850 5849 5850 5851 5851 5851 5852 5852 5852 5852 5852 5852 5853 5853 5853 5853 5854 5854 5853 5853 5853 5853 5852 5852 5851 5850 5850 5849 5848 5848 5847 5847 5846 5845 5844 5844 5843 5843 5842 5842 5842
5843 5844 5844 5844 5844 5845 5845 5846 5847 5847 5847 5848 5848 5849 5849 5850 5850 5850 5850 5850 5851 5851 5851 5851 5852 5852 5851 5851 5851 5850 5850 5849 5849 5848 5847 5846 5846 5845 5844 5843 5842 5842 5841 5840 5840 5839 5839 5838 5838
5840 5840 5841 5841 5841 5841 5842 5843 5843 5843 5844 5845 5846 5846 5847 5847 5847 5848 5848 5848 5848 5849 5849 5849 5849 5849 5849 5849 5848 5848 5847 5846 5845 5845 5844 5843 5842 5841 5840 5839 5839 5838 5837 5837 5836 5835 5835 5834 5834
5836 5837 5837 5838 5838 5838 5839 5840 5840 5840 5841 5841 5842 5843 5844 5845 5845 5845 5845 5846 5846 5847 5847 5847 5847 5847 5846 5846 5845 5845 5844 5843 5842 5841 5840 5839 5838 5837 5836 5835 5835 5834 5833 5833 5832 5831 5831 5830 5830
5832 5833 5833 5834 5834 5835 5836 5836 5837 5837 5837 5838 5839 5840 5841 5842 5842 5842 5843 5843 5844 5844 5844 5844 5844 5844 5844 5843 5842 5841 5840 5840 5839 5838 5837 5836 5834 5833 5832 5831 5830 5829 5829 5828 5827 5827 5826 5826 5825
5829 5829 5829 5830 5831 5831 5832 5832 5834 5833 5834 5835 5836 5837 5837 5838 5839 5839 5840 5840 5841 5841 5841 5842 5841 5841 5841 5840 5839 5838 5837 5836 5835 5834 5833 5832 5831 5829 5828 5827 5826 5825 5824 5824 5823 5822 5822 5821 5821
5825 5826 5826 5826 5827 5828 5828 5829 5830 5829 5830 5831 5832 5833 5834 5835 5836 5836 5837 5837 5838 5838 5838 5838 5838 5838 5837 5837 5836 5835 5833 5832 5831 5830 5829 5828 5827 5825 5824 5823 5822 5821 5820 5819 5819 5818 5818 5817 5816
5821 5823 5823 5823 5823 5824 5824 5824 5826 5826 5826 5827 5828 5828 5829 5831 5832 5833 5833 5834 5834 5835 5835 5835 5835 5835 5834 5833 5832 5831 5830 5829 5828 5826 5825 5824 5823 5821 5820 5819 5818 5817 5816 5815 5814 5814 5813 5813 5812
5817 5818 5820 5820 5821 5821 5820 5820 5823 5822 5822 5822 5823 5824 5825 5826 5827 5828 5829 5830 5831 5831 5831 5831 5831 5831 5830 5829 5828 5827 5826 5825 5824 5823 5821 5820 5819 5817 5816 5815 5814 5813 5812 5811 5810 5809 5809 5808 5807
5813 5813 5815 5816 5815 5816 5816 5817 5818 5818 5818 5818 5819 5820 5821 5822 5823 5824 5825 5825 5826 5827 5827 5827 5827 5826 5826 5825 5824 5823 5822 5821 5820 5819 5818 5816 5815 5814 5812 5811 5810 5809 5808 5807 5806 5805 5804 5803 5803
5809 5809 5810 5811 5811 5811 5812 5813 5815 5814 5814 5814 5815 5815 5816 5817 5818 5819 5820 5821 5821 5822 5822 5823 5822 5822 5821 5820 5819 5819 5818 5817 5816 5815 5814 5813 5811 5810 5808 5807 5806 5804 5803 5802 5801 5800 5799 5799 5798
5804 5805 5805 5806 5807 5807 5808 5811 5810 5810 5810 5810 5810 5811 5812 5813 5814 5815 5815 5816 5817 5817 5817 5817 5817 5817 5816 5815 5815 5814 5813 5812 5812 5811 5809 5808 5807 5805 5804 5803 5801 5800 5799 5798 5797 5796 5795 5794 5793
5799 5800 5801 5802 5802 5802 5803 5807 5805 5805 5805 5805 5805 5806 5807 5808 5809 5809 5810 5811 5812 5812 5812 5812 5812 5812 5811 5810 5810 5809 5808 5808 5807 5806 5805 5803 5802 5801 5800 5798 5797 5796 5795 5793 5792 5791 5790 5789 5788